STARLINK-35220

Last updated on Mon Oct 20 2025 00:02:05 GMT+0000 (Coordinated Universal Time)

1 65661U 25211K 25292.25002315 -.02479234 00000+0 -58934-1 0 9995 2 65661 97.6035 334.4139 0001580 73.3336 313.9290 15.45212384 5773

Satellite not in orbit

STARLINK-35220